This is the latest recevied weather packets stored in our database for station/object N3SBK. If no packets are shown the sender has not sent any weather packets the latest 10 day(s).
| Time | Temp. | Humidity | Pressure | Rain* | Wind** | Luminosity | Snow |
|---|---|---|---|---|---|---|---|
| 1787597607 | 20.56° C | 61% | 1008.5 hPa | 0 mm | - | 231 W/m² | - |
| 1787597306 | 21.11° C | 57% | 1008.5 hPa | 0 mm | - | 174 W/m² | - |
| 1787597002 | 21.11° C | 60% | 1008.5 hPa | 0 mm | - | 582 W/m² | - |
| 1787596698 | 21.11° C | 59% | 1008.3 hPa | 0 mm | - | 248 W/m² | - |
| 1787596394 | 20.56° C | 62% | 1008.4 hPa | 0 mm | - | 659 W/m² | - |
| 1787596089 | 21.11° C | 58% | 1008.5 hPa | 0 mm | - | 69 W/m² | - |
| 1787595785 | 21.67° C | 62% | 1008.4 hPa | 0 mm | - | 602 W/m² | - |
| 1787595480 | 21.11° C | 56% | 1008.3 hPa | 0 mm | - | 680 W/m² | - |
| 1787595175 | 20.56° C | 60% | 1008.4 hPa | 0 mm | - | 689 W/m² | - |
| 1787594870 | 21.11° C | 58% | 1008.3 hPa | 0 mm | - | 791 W/m² | - |
| 1787594570 | 21.67° C | 59% | 1008.4 hPa | 0 mm | - | 725 W/m² | - |
| 1787594268 | 21.11° C | 55% | 1008.4 hPa | 0 mm | - | 690 W/m² | - |
| 1787593963 | 21.11° C | 62% | 1008.2 hPa | 0 mm | - | 715 W/m² | - |
| 1787593658 | 21.11° C | 61% | 1008.2 hPa | 0 mm | - | 711 W/m² | - |
| 1787593353 | 20.56° C | 61% | 1008.3 hPa | 0 mm | - | 700 W/m² | - |
| 1787593049 | 21.11° C | 60% | 1008.3 hPa | 0 mm | - | 137 W/m² | - |
| 1787592744 | 21.11° C | 61% | 1008.1 hPa | 0 mm | - | 774 W/m² | - |
| 1787592443 | 20.56° C | 60% | 1008.1 hPa | 0 mm | - | 713 W/m² | - |
| 1787592144 | 20.56° C | 62% | 1008.1 hPa | 0 mm | - | 698 W/m² | - |
| 1787591839 | 20° C | 67% | 1008.4 hPa | 0 mm | - | 715 W/m² | - |
| 1787591539 | 20° C | 62% | 1008.2 hPa | 0 mm | - | 772 W/m² | - |
| 1787591236 | 20° C | 64% | 1008.2 hPa | 0 mm | - | 115 W/m² | - |
| 1787590931 | 20° C | 63% | 1008.3 hPa | 0 mm | - | 838 W/m² | - |
| 1787590626 | 20.56° C | 62% | 1008.1 hPa | 0 mm | - | 852 W/m² | - |
| 1787590321 | 20.56° C | 64% | 1008.4 hPa | 0 mm | - | 787 W/m² | - |
* Rain latest hour (hover to see other rain measurements)
** Current wind speed in m/s (hover to see current wind gust speed)